Location: Unspecified
(34.4950°S, 58.5160°W)
Time: 18:36:31
(UTC+00:00)

BlueWalker 3 - Pass Details

Date: 15 February 2026
Orbit: 451 x 458 km, 53.2° (Epoch: 6 March)

Event Time Altitude Azimuth Distance (km) Brightness Sun altitude
Exits shadow 06:54:56 - 203° (SSW) 2,148 5.4 -28.5°
Reaches altitude 10° 06:56:52 10° 183° (S) 1,630 5.0 -28.2°
Maximum altitude 06:58:52 14° 150° (SSE) 1,399 5.0 -27.9°
Drops below altitude 10° 07:00:51 10° 117° (ESE) 1,624 5.4 -27.6°
Sets 07:03:51 0° 90° (E) 2,494 6.2 -27.1°
